Location: Poughquag
(41.6090°N, 73.6820°W)
Time: 08:44:53
(UTC-05:00)

DIWATA 2B (PO-101) - Pass Details

Date: 18 November 2025
Orbit: 563 x 574 km, 98.1° (Epoch: 07 December)

Event Time Altitude Azimuth Distance (km) Brightness Sun altitude
Rises 05:19:07 0° 172° (S) 2,759 ? -16.5°
Reaches altitude 10° 05:21:16 10° 175° (S) 1,864 ? -16.1°
Maximum altitude 05:25:16 67° 258° (WSW) 618 ? -15.4°
Drops below altitude 10° 05:29:19 10° 342° (NNW) 1,873 ? -14.6°
Enters shadow 05:30:21 - 343° (NNW) 2,300 ? -14.4°
